Theta_e
345 346 344 344 343 341 341 340 341 342 341 339 339 339 338 340 342 342 339 340 340 341 343 343 341 332 329 325 326 325 324 323 322 321 322 323 323 324 324 325 326 327 328
345 346 345 344 343 342 341 341 341 339 339 338 337 336 336 337 340 342 341 339 339 340 341 343 343 340 334 329 327 325 327 325 326 325 325 325 325 325 326 328 329 332 330
348 344 343 341 343 342 342 341 341 341 340 336 334 332 331 332 331 338 342 341 342 342 341 342 344 344 341 338 332 329 325 326 328 326 326 327 327 327 331 331 331 332 332
347 344 344 343 344 344 343 341 341 337 334 332 330 328 327 326 324 327 331 338 341 343 342 341 342 342 343 342 340 336 330 326 325 330 329 326 326 327 326 327 331 332 330
345 343 343 342 345 345 342 341 337 336 333 331 328 331 328 327 327 326 328 331 339 342 343 342 342 342 341 341 343 341 338 333 327 325 326 327 329 327 328 328 328 328 328
344 344 345 348 343 338 335 332 334 332 330 332 334 331 330 329 330 334 334 333 334 338 343 344 343 343 342 341 340 343 342 338 337 328 325 325 329 329 329 328 329 329 329
347 347 341 339 337 333 333 332 329 330 332 335 335 332 330 331 332 336 335 337 336 338 335 338 341 341 341 341 342 342 342 344 344 341 338 330 326 327 328 331 328 328 331
341 341 338 333 329 328 329 330 334 335 334 336 335 334 333 334 333 331 331 332 332 336 338 340 341 340 340 340 340 341 341 341 341 343 343 340 338 335 331 326 330 329 330
339 335 330 324 326 329 332 329 329 334 337 336 335 334 335 335 332 331 331 330 330 332 334 338 338 338 338 338 338 338 339 340 340 340 342 343 341 339 338 337 327 326 327
335 327 331 331 332 334 332 326 328 332 334 333 332 332 332 333 333 332 328 324 322 322 324 327 330 332 333 335 335 334 336 339 339 340 340 340 341 340 340 337 334 324 325
329 328 332 333 334 334 328 326 328 328 329 329 332 329 330 329 329 325 322 320 320 319 319 319 323 325 327 329 330 333 333 334 336 335 339 340 340 339 342 341 338 336 323
329 327 333 335 334 330 324 325 328 327 329 331 328 324 324 324 325 324 323 320 319 318 317 318 319 319 320 322 323 326 330 333 335 334 334 338 339 340 340 340 341 341 335
323 319 325 331 331 324 322 328 328 329 328 327 329 328 326 326 326 323 323 320 319 319 317 315 318 318 318 318 319 321 324 325 333 337 336 337 338 340 341 341 340 340 341
320 322 325 329 330 327 324 326 328 329 329 327 328 329 329 328 327 325 323 320 320 319 318 318 318 317 316 316 317 318 318 322 325 332 338 338 338 338 340 342 342 340 339
327 325 324 324 328 328 325 322 325 328 331 330 330 330 330 329 329 326 325 323 322 320 319 318 319 317 316 317 320 321 319 318 326 326 331 336 337 339 338 338 341 341 339
328 322 324 328 324 325 326 325 321 324 326 327 330 330 331 329 328 327 326 325 324 324 320 319 320 317 316 319 319 320 320 320 322 326 327 331 336 337 336 336 338 338 340
318 321 323 325 325 322 319 321 326 328 328 329 329 331 329 326 328 329 327 325 325 325 323 321 323 320 316 318 319 319 319 319 320 323 327 329 332 334 334 335 337 336 337
320 321 322 322 322 323 324 325 324 326 327 327 327 329 329 329 329 328 324 322 324 324 324 324 323 320 318 317 318 319 319 319 320 321 323 328 331 332 335 336 335 334 337
319 319 319 319 320 321 323 325 328 329 329 329 324 325 324 324 323 323 323 324 324 324 324 323 322 320 318 318 318 319 318 318 319 321 322 325 330 333 334 336 336 336 338
319 319 321 322 322 323 325 327 329 329 325 325 325 323 322 322 322 321 320 321 323 324 324 324 323 321 319 319 318 318 318 318 318 319 320 323 327 334 334 333 335 336 335
319 320 323 324 326 327 326 324 325 327 326 323 323 321 322 323 323 323 320 320 322 323 322 322 322 320 320 319 318 318 317 318 318 319 320 322 325 330 335 333 333 334 334
320 320 324 326 328 327 325 323 324 327 326 324 324 322 321 321 322 322 320 321 322 322 321 321 320 320 319 318 317 317 316 317 318 319 320 321 324 333 333 337 332 333 333
321 321 325 328 327 326 327 327 328 328 326 327 325 322 320 320 320 320 320 322 321 321 321 321 319 319 319 317 317 317 316 317 318 319 320 321 323 326 335 339 336 334 334
321 324 324 329 331 331 331 329 328 326 326 326 325 321 321 320 320 321 321 321 320 321 321 320 321 320 318 317 318 317 316 317 318 319 320 321 322 324 332 338 337 335 337
321 328 327 330 330 328 329 326 327 326 325 324 324 321 322 321 322 322 320 320 321 321 321 319 317 318 319 320 318 315 317 318 318 318 321 322 323 325 329 336 339 337 339
323 332 332 333 332 330 328 325 327 328 324 323 323 322 322 322 321 318 320 321 321 321 320 318 316 318 320 318 316 316 318 317 317 318 321 322 323 325 328 335 339 337 338
Wind_Speed
7 4 5 8 8 9 11 10 10 11 13 14 12 12 12 13 12 11 10 10 11 10 11 13 11 11 13 14 14 13 13 13 13 13 13 12 12 12 12 12 11 11 10
9 8 9 10 10 9 10 12 13 13 14 15 13 12 13 13 13 11 13 12 12 12 12 13 15 13 13 14 15 16 15 14 14 14 13 12 12 12 12 13 12 11 11
10 10 10 9 9 10 11 12 13 14 14 14 13 13 13 12 13 14 11 13 13 15 14 14 15 16 15 15 16 16 17 18 17 16 15 15 14 14 14 14 13 12 12
14 14 12 10 11 13 13 12 13 13 12 13 15 15 14 12 12 13 14 15 17 15 16 16 16 16 17 16 17 18 17 18 19 20 18 18 18 17 16 16 15 15 14
14 17 15 12 14 14 13 12 11 12 11 12 14 13 12 10 10 12 12 14 16 17 18 18 17 18 18 20 18 19 20 19 20 21 21 21 20 20 19 18 17 17 17
15 14 13 15 15 11 9 10 11 13 13 12 13 14 11 7 5 5 7 8 10 17 18 19 19 19 20 21 20 22 21 22 23 22 22 23 23 23 22 22 21 20 19
16 13 12 10 9 12 10 10 11 12 11 13 14 13 8 7 2 4 3 3 5 9 15 19 21 18 22 23 23 23 23 24 25 25 24 25 25 25 24 24 23 23 22
10 9 9 13 14 11 10 11 10 12 11 10 12 12 8 3 2 9 7 7 9 9 7 9 11 15 19 20 21 23 24 26 27 28 27 26 27 27 26 27 27 26 25
8 10 12 9 5 2 4 9 11 11 10 8 7 6 4 3 17 4 6 9 8 9 10 10 11 12 13 15 20 22 23 26 27 29 31 31 30 30 30 29 29 28 27
8 8 6 3 5 4 9 9 8 8 9 8 6 5 5 7 6 8 10 10 10 10 10 11 14 16 18 19 19 20 22 24 26 28 30 33 33 31 30 31 30 29 29
9 8 7 5 7 8 10 6 5 5 6 6 4 5 3 3 2 7 14 18 14 13 13 11 10 12 14 18 22 23 24 25 26 30 30 33 34 33 31 30 31 31 30
8 9 9 7 7 11 8 5 3 4 4 3 3 4 3 5 7 7 10 15 18 18 13 11 13 15 13 14 15 21 24 27 30 30 33 34 34 35 35 33 31 31 32
11 10 9 9 11 6 5 1 1 3 3 3 3 5 8 10 10 12 13 13 17 21 22 18 18 18 16 18 19 19 21 27 30 30 29 30 32 35 37 37 35 33 32
10 8 9 10 7 7 7 5 5 5 6 7 9 10 11 12 12 12 14 16 19 22 26 24 21 21 21 22 24 24 24 25 29 33 33 34 34 34 36 38 38 37 35
11 10 10 9 9 11 10 10 10 9 10 12 14 15 16 15 15 16 15 17 20 22 26 28 27 24 24 29 29 29 27 27 27 32 36 35 36 38 38 42 44 40 41
13 13 11 10 9 9 11 13 12 12 13 14 14 17 17 18 19 19 18 19 22 24 27 27 27 29 28 27 33 34 31 31 29 30 36 38 37 38 38 38 43 42 43
13 13 12 11 10 9 10 11 13 13 15 16 16 17 18 19 20 21 22 22 22 24 29 32 31 29 31 33 36 35 37 37 32 29 32 37 41 40 39 38 42 43 43
12 11 10 10 10 9 9 10 11 9 11 12 14 16 18 19 22 22 22 22 22 23 27 32 34 34 35 35 39 40 43 40 37 33 31 35 39 41 41 40 41 43 43
12 11 10 9 8 8 7 8 10 11 13 14 16 17 18 17 19 21 23 25 25 25 26 30 35 34 35 35 39 43 43 46 43 39 32 32 38 39 42 42 41 43 43
14 14 12 10 9 8 9 11 14 14 14 16 16 17 18 19 21 23 24 26 25 26 27 30 33 37 36 35 39 42 50 49 53 44 39 34 35 39 39 41 42 46 43
18 18 15 13 11 10 11 13 15 16 17 15 16 16 20 21 22 23 24 25 24 27 29 29 32 35 38 36 39 40 50 46 51 44 44 36 30 38 39 42 42 44 46
22 22 20 15 12 12 11 15 17 18 19 18 17 18 21 24 23 21 23 25 24 26 27 29 31 33 36 36 37 39 45 47 49 43 36 42 32 22 37 39 41 43 45
23 25 22 17 14 11 12 18 21 21 20 20 19 21 22 16 18 21 23 24 25 24 25 28 32 34 34 32 36 42 47 45 52 47 43 45 40 36 28 31 36 37 40
25 24 24 20 17 17 18 20 21 22 21 21 22 23 24 23 23 21 24 26 24 24 26 28 32 36 33 32 38 44 50 54 51 48 37 44 42 39 36 27 29 32 33
25 25 22 21 19 18 20 22 23 21 20 21 24 25 23 24 22 24 25 24 24 26 28 30 31 32 32 33 35 46 47 52 47 48 38 39 40 39 38 33 29 28 29
25 27 21 21 24 23 22 22 23 24 23 23 24 26 24 22 23 24 21 22 25 29 31 36 35 28 22 26 39 43 52 48 47 46 37 34 37 30 27 33 29 28 28
Wind_Direction
263 283 298 309 304 289 294 296 306 306 310 311 315 308 302 280 282 278 279 262 257 268 266 248 254 250 235 233 235 233 235 231 226 229 234 235 238 242 242 243 245 247 249
261 285 289 286 295 298 296 298 301 298 303 305 303 299 294 287 281 264 271 260 262 264 260 260 249 255 252 243 238 240 239 241 239 236 238 242 241 241 246 247 245 248 251
269 282 278 278 287 296 290 294 297 299 304 308 309 306 300 291 289 274 266 251 256 267 255 253 259 252 254 256 252 248 245 246 247 245 243 246 248 246 247 250 252 252 252
262 270 282 286 290 296 289 288 291 295 307 313 314 316 310 295 294 284 272 265 266 261 259 252 252 261 258 258 256 255 252 251 250 249 251 250 250 251 252 250 253 255 255
269 275 278 271 283 295 288 286 292 303 314 312 314 318 320 310 298 290 283 268 264 265 262 258 262 263 261 261 264 256 255 256 257 255 254 253 254 253 254 256 254 255 257
261 265 265 283 296 293 287 291 298 309 319 319 321 324 328 331 321 317 304 287 281 264 257 260 262 267 268 262 263 261 257 257 259 262 258 257 256 255 256 256 256 256 257
259 272 284 285 282 288 288 291 301 307 318 323 325 327 344 327 199 56 38 6 327 311 265 257 261 266 263 267 266 260 260 259 259 261 264 262 260 258 256 256 257 256 256
251 271 274 278 276 270 277 289 296 300 311 319 325 337 347 45 119 337 332 323 316 324 314 279 275 272 268 266 268 264 263 262 262 259 259 261 261 261 260 257 255 256 257
249 271 279 278 263 266 297 298 294 297 305 315 322 329 336 300 328 336 360 351 334 317 300 288 283 285 283 278 274 270 270 268 265 262 258 257 257 259 258 258 256 254 254
263 262 269 241 174 296 308 295 278 284 289 297 309 315 324 318 326 323 336 352 348 337 313 289 281 278 276 275 271 272 268 265 269 269 263 258 257 256 255 253 254 253 252
271 254 257 242 247 286 302 285 285 283 290 295 315 324 318 310 274 319 327 338 340 352 347 343 320 301 286 275 271 270 265 265 263 266 260 259 257 256 252 252 252 252 252
263 258 245 252 284 303 291 296 300 303 283 285 323 9 4 342 320 313 318 332 335 343 359 359 352 352 340 321 304 283 273 263 256 260 258 256 253 254 252 251 250 250 250
266 251 257 261 284 265 238 238 338 335 315 301 277 315 324 316 320 317 314 317 323 326 328 334 338 340 333 322 322 313 296 274 264 257 254 251 251 251 251 251 249 247 249
241 250 258 265 266 249 245 267 265 275 293 302 304 306 312 312 307 308 304 312 318 318 320 328 334 339 338 339 334 316 307 300 273 259 252 248 252 253 254 252 250 249 245
244 256 253 252 255 266 252 259 262 269 278 288 303 301 301 304 298 298 296 303 309 310 312 319 326 331 326 335 338 333 320 302 292 267 252 249 247 246 254 252 246 252 250
240 241 245 259 258 255 254 259 266 269 275 283 287 291 290 292 295 293 295 296 300 302 299 306 318 322 323 330 336 331 331 315 300 284 262 251 245 244 245 249 243 246 245
234 238 242 247 258 263 263 263 269 277 278 280 281 283 284 287 286 287 289 293 294 294 293 298 307 314 318 324 326 328 326 319 307 296 272 256 250 247 248 247 241 243 244
229 234 242 255 259 260 261 271 279 281 289 291 290 292 292 284 282 283 284 293 294 294 292 295 304 311 313 319 322 324 326 323 316 296 287 266 251 247 246 247 240 240 237
234 240 248 245 248 250 249 264 277 281 287 294 297 295 292 281 280 283 285 285 291 293 290 292 297 305 314 317 322 325 326 325 319 312 289 275 257 246 244 244 240 237 235
233 237 240 236 240 245 254 265 271 279 291 296 299 299 289 287 294 292 288 286 287 291 291 290 290 299 309 313 317 322 322 322 318 309 302 285 260 248 243 243 241 236 234
227 235 240 241 246 250 259 263 272 281 292 296 291 303 293 291 295 291 292 289 289 290 293 290 290 298 303 309 316 321 320 314 311 309 303 297 282 251 247 239 240 236 234
229 234 240 241 250 261 272 277 280 285 291 289 292 294 293 290 289 282 290 290 292 291 290 291 294 294 300 305 313 317 320 315 306 307 300 297 280 270 251 246 241 238 237
233 237 241 244 250 262 275 280 283 283 285 282 283 293 305 305 304 291 291 289 291 290 291 295 294 294 294 304 313 310 320 311 302 302 292 285 278 262 242 255 244 242 238
241 243 246 249 254 266 271 277 282 284 280 276 277 289 300 293 301 292 291 291 293 292 297 295 293 292 287 297 315 316 318 312 308 301 285 273 272 262 240 245 239 237 235
256 252 251 248 256 263 290 284 282 280 279 283 283 285 294 298 295 291 290 293 295 300 305 304 301 297 292 296 311 322 319 311 299 299 284 267 264 260 239 239 237 229 228
266 259 259 265 272 276 281 279 279 275 281 284 280 286 300 298 294 288 289 296 303 310 314 316 317 314 308 311 324 329 328 310 300 295 283 258 253 243 247 232 232 224 226